Location: Chimay
(50.0486°N, 4.3171°E)
Time: 04:26:57
(UTC+00:00)

Cosmos 2123 Rocket - Pass Details

Date: 08 August 2020
Orbit: 962 x 991 km, 82.9° (Epoch: 19 September)

Event Time Altitude Azimuth Distance (km) Brightness Sun altitude
Rises 20:03:29 0° 353° (N) 3,666 7.7 -7.7°
Reaches altitude 10° 20:06:05 10° 358° (N) 2,718 6.9 -8.1°
Maximum altitude 20:12:08 51° 74° (ENE) 1,210 4.3 -8.8°
Drops below altitude 10° 20:18:10 10° 150° (SSE) 2,718 5.7 -9.6°
Enters shadow 20:18:16 10° 150° (SSE) 2,753 5.8 -9.6°
